Location: Ailingen
(47.6833°N, 9.5000°E)
Time: 08:31:25
(UTC+00:00)

BREEZE-M DEB (TANK) - Pass Details

Date: 18 November 2025
Orbit: 304 x 15914 km, 49.3° (Epoch: 13 December)

Event Time Altitude Azimuth Distance (km) Brightness Sun altitude
Rises 17:26:13 0° 256° (WSW) 2,098 7.1 -17.3°
Reaches altitude 10° 17:27:33 10° 257° (WSW) 1,419 5.7 -17.6°
Maximum altitude 17:30:11 86° 347° (NNW) 591 2.4 -18.0°
Enters shadow 17:32:22 32° 74° (ENE) 1,368 3.7 -18.4°
